QPF
0.01 0.01 0.01 0.03 0.04 0.04 0.04 0.03 0.03 0.03 0.02 0.02 0.02 0.03 0.03 0.04 0.05 0.05 0.05 0.06 0.07 0.07 0.07 0.06 0.07 0.07 0.05 0.04 0.04 0.04 0.06 0.07 0.07 0.08 0.09 0.07 0.03 0.02 0.01 0.01 0.01 0.01 0.02
0.01 0.01 0.01 0.02 0.03 0.03 0.04 0.04 0.03 0.03 0.02 0.02 0.01 0.02 0.03 0.05 0.05 0.07 0.08 0.08 0.08 0.09 0.07 0.06 0.07 0.07 0.07 0.05 0.03 0.03 0.04 0.06 0.08 0.09 0.11 0.14 0.12 0.08 0.04 0.01 0.01 0.01 0.01
0.01 0.01 0.01 0.01 0.02 0.02 0.02 0.03 0.03 0.02 0.02 0.02 0.01 0.01 0.02 0.04 0.06 0.06 0.10 0.12 0.11 0.10 0.09 0.07 0.07 0.08 0.09 0.07 0.04 0.02 0.02 0.03 0.06 0.08 0.09 0.11 0.13 0.11 0.09 0.05 0.03 0.02 0.02
0.01 0.01 0.01 0.01 0.01 0.01 0.02 0.02 0.02 0.02 0.01 0.01 0.01 0.01 0.02 0.03 0.04 0.05 0.07 0.14 0.15 0.14 0.12 0.10 0.09 0.08 0.09 0.09 0.06 0.03 0.02 0.02 0.03 0.05 0.06 0.06 0.07 0.08 0.07 0.06 0.05 0.05 0.04
0.01 0.01 0.01 0.01 0.01 0.01 0.01 0.01 0.01 0.01 0.01 0.01 0.02 0.01 0.02 0.02 0.04 0.05 0.07 0.10 0.15 0.16 0.15 0.16 0.14 0.10 0.08 0.09 0.08 0.05 0.03 0.02 0.02 0.02 0.03 0.03 0.03 0.04 0.04 0.04 0.03 0.03 0.03
0.01 0.01 0.01 0.01 0.01 0.01 0.01 0.01 0.01 0.01 0.01 0.01 0.01 0.02 0.03 0.03 0.04 0.04 0.06 0.08 0.09 0.13 0.15 0.15 0.15 0.13 0.10 0.09 0.09 0.08 0.05 0.04 0.02 0.01 0.01 0.02 0.02 0.03 0.03 0.03 0.03 0.02 0.01
0.01 0.00 0.01 0.01 0.01 0.01 0.01 0.01 0.01 0.01 0.01 0.01 0.01 0.01 0.02 0.03 0.04 0.04 0.05 0.07 0.08 0.08 0.10 0.14 0.16 0.15 0.11 0.10 0.10 0.10 0.08 0.05 0.03 0.02 0.02 0.02 0.02 0.02 0.03 0.03 0.03 0.03 0.02
0.01 0.01 0.01 0.01 0.01 0.02 0.02 0.02 0.02 0.01 0.01 0.01 0.01 0.01 0.01 0.02 0.03 0.03 0.04 0.05 0.07 0.07 0.07 0.08 0.10 0.13 0.13 0.11 0.09 0.11 0.10 0.07 0.05 0.03 0.02 0.02 0.02 0.02 0.02 0.02 0.02 0.02 0.02
0.02 0.02 0.02 0.02 0.01 0.02 0.02 0.03 0.02 0.02 0.02 0.01 0.02 0.01 0.01 0.02 0.04 0.04 0.03 0.04 0.05 0.06 0.06 0.07 0.07 0.08 0.10 0.11 0.10 0.09 0.10 0.10 0.07 0.05 0.04 0.03 0.02 0.02 0.01 0.02 0.02 0.03 0.02
0.03 0.03 0.02 0.02 0.02 0.02 0.02 0.03 0.03 0.02 0.02 0.02 0.01 0.01 0.01 0.02 0.04 0.04 0.03 0.03 0.04 0.04 0.05 0.07 0.08 0.08 0.09 0.11 0.14 0.13 0.11 0.11 0.10 0.08 0.06 0.05 0.04 0.03 0.02 0.02 0.02 0.03 0.03
0.02 0.02 0.02 0.03 0.02 0.02 0.03 0.03 0.03 0.02 0.02 0.02 0.01 0.01 0.01 0.02 0.03 0.04 0.04 0.04 0.03 0.03 0.03 0.04 0.05 0.07 0.08 0.09 0.11 0.15 0.15 0.13 0.12 0.11 0.08 0.07 0.06 0.05 0.04 0.03 0.02 0.02 0.02
0.02 0.02 0.03 0.03 0.03 0.03 0.04 0.03 0.02 0.02 0.02 0.01 0.01 0.01 0.01 0.01 0.02 0.03 0.03 0.03 0.03 0.02 0.02 0.02 0.02 0.03 0.03 0.04 0.06 0.07 0.10 0.13 0.13 0.12 0.11 0.09 0.07 0.06 0.06 0.05 0.05 0.04 0.03
0.02 0.03 0.03 0.03 0.04 0.04 0.03 0.02 0.02 0.02 0.01 0.01 0.01 0.01 0.01 0.01 0.01 0.02 0.02 0.01 0.02 0.02 0.02 0.02 0.02 0.02 0.02 0.02 0.02 0.03 0.04 0.06 0.09 0.11 0.11 0.10 0.08 0.06 0.05 0.04 0.04 0.03 0.03
0.02 0.02 0.02 0.02 0.02 0.02 0.02 0.02 0.02 0.02 0.01 0.01 0.01 0.01 0.01 0.00 0.00 0.01 0.01 0.01 0.01 0.01 0.01 0.02 0.02 0.01 0.01 0.02 0.01 0.02 0.02 0.02 0.04 0.06 0.08 0.08 0.07 0.06 0.04 0.04 0.03 0.03 0.03
0.02 0.01 0.01 0.01 0.01 0.01 0.01 0.01 0.01 0.01 0.01 0.01 0.01 0.01 0.01 0.01 0.00 0.00 0.00 0.00 0.00 0.01 0.01 0.01 0.01 0.01 0.01 0.01 0.01 0.01 0.02 0.02 0.02 0.02 0.04 0.05 0.05 0.05 0.04 0.04 0.03 0.03 0.03
0.01 0.01 0.01 0.00 0.00 0.00 0.00 0.01 0.01 0.00 0.00 0.00 0.00 0.00 0.01 0.00 0.00 0.00 0.00 0.00 0.01 0.00 0.01 0.00 0.00 0.01 0.00 0.01 0.01 0.01 0.01 0.01 0.01 0.01 0.02 0.03 0.04 0.04 0.03 0.03 0.02 0.02 0.02
0.01 0.01 0.01 0.00 0.00 0.00 0.00 0.00 0.00 0.00 0.00 0.00 0.00 0.00 0.00 0.00 0.00 0.00 0.00 0.00 0.00 0.00 0.01 0.00 0.00 0.00 0.01 0.01 0.02 0.02 0.01 0.01 0.01 0.01 0.01 0.01 0.02 0.02 0.02 0.02 0.02 0.01 0.01
0.00 0.00 0.00 0.00 0.00 0.00 0.00 0.01 0.00 0.00 0.00 0.00 0.01 0.00 0.00 0.00 0.00 0.00 0.00 0.00 0.01 0.01 0.00 0.00 0.00 0.00 0.01 0.02 0.02 0.01 0.01 0.01 0.01 0.01 0.01 0.01 0.01 0.02 0.02 0.02 0.02 0.01 0.01
0.00 0.00 0.00 0.00 0.00 0.00 0.00 0.00 0.00 0.00 0.00 0.00 0.01 0.00 0.00 0.00 0.00 0.00 0.00 0.00 0.00 0.00 0.00 0.00 0.00 0.01 0.01 0.02 0.02 0.01 0.01 0.01 0.01 0.01 0.01 0.01 0.01 0.02 0.02 0.02 0.03 0.02 0.02
0.00 0.00 0.00 0.00 0.00 0.00 0.00 0.00 0.00 0.00 0.00 0.00 0.01 0.00 0.00 0.00 0.00 0.00 0.00 0.00 0.00 0.00 0.00 0.01 0.00 0.00 0.01 0.02 0.01 0.01 0.00 0.00 0.00 0.00 0.01 0.01 0.01 0.02 0.02 0.02 0.03 0.03 0.02
0.00 0.00 0.00 0.00 0.00 0.00 0.00 0.00 0.00 0.00 0.00 0.00 0.00 0.00 0.00 0.00 0.00 0.00 0.01 0.01 0.01 0.01 0.01 0.00 0.00 0.00 0.01 0.01 0.01 0.01 0.01 0.00 0.01 0.01 0.01 0.01 0.02 0.02 0.02 0.02 0.02 0.03 0.03
0.00 0.00 0.00 0.01 0.01 0.01 0.00 0.00 0.00 0.00 0.00 0.00 0.00 0.00 0.00 0.00 0.00 0.00 0.00 0.00 0.01 0.01 0.01 0.01 0.00 0.00 0.00 0.01 0.01 0.01 0.01 0.01 0.01 0.01 0.01 0.01 0.01 0.02 0.02 0.02 0.02 0.02 0.03
0.00 0.00 0.00 0.01 0.01 0.01 0.00 0.00 0.00 0.00 0.00 0.00 0.00 0.00 0.00 0.00 0.00 0.00 0.00 0.00 0.01 0.01 0.02 0.01 0.01 0.01 0.01 0.01 0.01 0.01 0.01 0.01 0.01 0.01 0.01 0.01 0.01 0.01 0.01 0.01 0.02 0.02 0.02
0.00 0.00 0.00 0.00 0.01 0.01 0.00 0.00 0.00 0.00 0.00 0.00 0.00 0.00 0.00 0.00 0.00 0.00 0.00 0.01 0.01 0.01 0.01 0.01 0.01 0.01 0.01 0.01 0.01 0.01 0.01 0.01 0.01 0.01 0.01 0.01 0.01 0.01 0.01 0.01 0.01 0.02 0.02
0.00 0.00 0.00 0.00 0.00 0.00 0.00 0.00 0.00 0.00 0.00 0.00 0.00 0.00 0.00 0.00 0.00 0.00 0.01 0.01 0.01 0.01 0.01 0.01 0.01 0.01 0.01 0.01 0.01 0.01 0.01 0.01 0.02 0.02 0.02 0.01 0.01 0.01 0.01 0.02 0.02 0.02 0.02
0.00 0.00 0.00 0.00 0.00 0.00 0.00 0.00 0.00 0.00 0.00 0.01 0.00 0.00 0.00 0.00 0.00 0.00 0.00 0.01 0.01 0.01 0.01 0.01 0.01 0.02 0.02 0.01 0.02 0.02 0.02 0.02 0.02 0.02 0.02 0.01 0.01 0.01 0.01 0.02 0.02 0.02 0.02
MSLP
1010.55 1010.50 1010.47 1010.44 1010.42 1010.43 1010.48 1010.58 1010.76 1011.01 1011.31 1011.66 1012.02 1012.38 1012.71 1013.02 1013.28 1013.52 1013.73 1013.94 1014.16 1014.39 1014.65 1014.94 1015.25 1015.59 1015.93 1016.28 1016.62 1016.93 1017.21 1017.43 1017.59 1017.67 1017.67 1017.61 1017.47 1017.29 1017.08 1016.86 1016.68 1016.53 1016.45
1010.49 1010.52 1010.53 1010.52 1010.49 1010.46 1010.45 1010.49 1010.61 1010.81 1011.07 1011.39 1011.74 1012.08 1012.40 1012.67 1012.90 1013.09 1013.26 1013.43 1013.62 1013.84 1014.10 1014.40 1014.73 1015.09 1015.45 1015.80 1016.14 1016.45 1016.71 1016.93 1017.10 1017.20 1017.23 1017.19 1017.09 1016.93 1016.74 1016.55 1016.37 1016.23 1016.14
1010.48 1010.59 1010.67 1010.69 1010.67 1010.61 1010.57 1010.56 1010.62 1010.77 1010.99 1011.28 1011.60 1011.91 1012.19 1012.42 1012.59 1012.72 1012.84 1012.96 1013.10 1013.29 1013.53 1013.83 1014.15 1014.50 1014.85 1015.19 1015.51 1015.80 1016.05 1016.27 1016.44 1016.57 1016.64 1016.65 1016.60 1016.50 1016.37 1016.21 1016.05 1015.93 1015.84
1010.51 1010.71 1010.86 1010.94 1010.93 1010.87 1010.80 1010.75 1010.77 1010.87 1011.05 1011.30 1011.58 1011.85 1012.08 1012.25 1012.36 1012.42 1012.46 1012.51 1012.60 1012.74 1012.94 1013.20 1013.49 1013.81 1014.13 1014.43 1014.72 1014.98 1015.22 1015.43 1015.62 1015.78 1015.90 1015.98 1016.02 1015.99 1015.93 1015.82 1015.71 1015.60 1015.52
1010.59 1010.87 1011.10 1011.22 1011.25 1011.19 1011.10 1011.02 1011.01 1011.07 1011.21 1011.41 1011.65 1011.86 1012.03 1012.14 1012.17 1012.16 1012.12 1012.09 1012.10 1012.17 1012.31 1012.51 1012.75 1013.01 1013.28 1013.54 1013.78 1014.01 1014.23 1014.44 1014.65 1014.85 1015.04 1015.20 1015.31 1015.38 1015.39 1015.36 1015.30 1015.22 1015.16
1010.72 1011.07 1011.36 1011.53 1011.58 1011.53 1011.43 1011.34 1011.29 1011.32 1011.42 1011.58 1011.76 1011.92 1012.03 1012.07 1012.03 1011.93 1011.81 1011.69 1011.62 1011.61 1011.66 1011.79 1011.96 1012.15 1012.36 1012.56 1012.75 1012.94 1013.13 1013.34 1013.57 1013.81 1014.06 1014.29 1014.49 1014.65 1014.75 1014.80 1014.80 1014.77 1014.72
1010.92 1011.32 1011.64 1011.84 1011.90 1011.86 1011.76 1011.65 1011.58 1011.57 1011.64 1011.76 1011.89 1011.99 1012.04 1012.01 1011.90 1011.72 1011.52 1011.32 1011.16 1011.07 1011.04 1011.08 1011.17 1011.29 1011.42 1011.55 1011.69 1011.83 1012.00 1012.19 1012.43 1012.70 1012.99 1013.29 1013.57 1013.81 1014.00 1014.12 1014.19 1014.22 1014.22
1011.18 1011.61 1011.94 1012.15 1012.23 1012.18 1012.07 1011.94 1011.85 1011.82 1011.85 1011.92 1012.00 1012.06 1012.05 1011.96 1011.78 1011.54 1011.27 1011.00 1010.76 1010.59 1010.48 1010.44 1010.45 1010.48 1010.54 1010.61 1010.68 1010.77 1010.90 1011.07 1011.29 1011.57 1011.89 1012.23 1012.57 1012.88 1013.15 1013.35 1013.50 1013.61 1013.67
1011.52 1011.94 1012.28 1012.48 1012.54 1012.49 1012.37 1012.22 1012.10 1012.04 1012.03 1012.07 1012.10 1012.11 1012.06 1011.92 1011.69 1011.40 1011.08 1010.75 1010.46 1010.22 1010.04 1009.92 1009.86 1009.82 1009.80 1009.80 1009.81 1009.84 1009.92 1010.05 1010.25 1010.52 1010.84 1011.19 1011.57 1011.93 1012.26 1012.54 1012.78 1012.96 1013.12
1011.92 1012.32 1012.64 1012.82 1012.86 1012.79 1012.65 1012.48 1012.34 1012.25 1012.21 1012.21 1012.21 1012.17 1012.08 1011.90 1011.64 1011.32 1010.96 1010.60 1010.26 1009.98 1009.75 1009.58 1009.45 1009.35 1009.27 1009.20 1009.15 1009.13 1009.14 1009.23 1009.38 1009.61 1009.91 1010.26 1010.64 1011.03 1011.41 1011.76 1012.07 1012.35 1012.59
1012.36 1012.74 1013.02 1013.16 1013.18 1013.09 1012.93 1012.75 1012.59 1012.47 1012.40 1012.36 1012.32 1012.25 1012.13 1011.92 1011.64 1011.30 1010.93 1010.56 1010.20 1009.90 1009.64 1009.43 1009.26 1009.11 1008.98 1008.86 1008.75 1008.67 1008.64 1008.66 1008.76 1008.94 1009.20 1009.52 1009.89 1010.29 1010.69 1011.09 1011.46 1011.82 1012.15
1012.81 1013.15 1013.38 1013.50 1013.49 1013.38 1013.21 1013.02 1012.85 1012.71 1012.62 1012.55 1012.48 1012.37 1012.22 1011.99 1011.70 1011.36 1010.99 1010.61 1010.26 1009.95 1009.68 1009.45 1009.26 1009.09 1008.92 1008.76 1008.62 1008.49 1008.41 1008.38 1008.43 1008.55 1008.76 1009.04 1009.38 1009.76 1010.17 1010.58 1011.00 1011.41 1011.80
1013.22 1013.51 1013.70 1013.78 1013.75 1013.63 1013.46 1013.27 1013.10 1012.97 1012.86 1012.76 1012.67 1012.54 1012.36 1012.12 1011.82 1011.47 1011.11 1010.75 1010.41 1010.10 1009.84 1009.61 1009.42 1009.23 1009.05 1008.88 1008.71 1008.56 1008.44 1008.37 1008.37 1008.45 1008.61 1008.84 1009.13 1009.48 1009.87 1010.28 1010.70 1011.13 1011.55
1013.55 1013.78 1013.93 1013.97 1013.93 1013.81 1013.66 1013.49 1013.34 1013.21 1013.10 1013.00 1012.88 1012.73 1012.53 1012.27 1011.96 1011.62 1011.27 1010.92 1010.60 1010.31 1010.07 1009.85 1009.66 1009.49 1009.31 1009.14 1008.97 1008.81 1008.68 1008.59 1008.56 1008.60 1008.71 1008.89 1009.14 1009.44 1009.79 1010.16 1010.56 1010.96 1011.36
1013.75 1013.92 1014.02 1014.04 1013.99 1013.89 1013.77 1013.64 1013.52 1013.42 1013.32 1013.22 1013.09 1012.91 1012.69 1012.42 1012.11 1011.77 1011.42 1011.09 1010.78 1010.52 1010.29 1010.10 1009.93 1009.77 1009.61 1009.46 1009.30 1009.15 1009.03 1008.94 1008.89 1008.91 1008.99 1009.13 1009.33 1009.57 1009.86 1010.18 1010.51 1010.86 1011.20
1013.81 1013.91 1013.96 1013.96 1013.91 1013.85 1013.77 1013.69 1013.62 1013.55 1013.48 1013.38 1013.24 1013.06 1012.82 1012.53 1012.20 1011.86 1011.51 1011.19 1010.90 1010.65 1010.45 1010.28 1010.13 1010.00 1009.87 1009.75 1009.62 1009.50 1009.39 1009.32 1009.28 1009.28 1009.34 1009.45 1009.60 1009.79 1010.01 1010.25 1010.50 1010.77 1011.04
1013.75 1013.77 1013.76 1013.74 1013.71 1013.67 1013.65 1013.63 1013.61 1013.59 1013.54 1013.45 1013.31 1013.12 1012.86 1012.55 1012.21 1011.85 1011.51 1011.19 1010.91 1010.68 1010.49 1010.34 1010.23 1010.12 1010.03 1009.94 1009.84 1009.76 1009.69 1009.63 1009.61 1009.61 1009.66 1009.74 1009.85 1009.98 1010.14 1010.30 1010.48 1010.66 1010.84
1013.58 1013.52 1013.47 1013.42 1013.40 1013.40 1013.42 1013.46 1013.50 1013.51 1013.49 1013.41 1013.27 1013.06 1012.78 1012.45 1012.09 1011.72 1011.37 1011.05 1010.78 1010.56 1010.39 1010.27 1010.17 1010.10 1010.03 1009.98 1009.92 1009.88 1009.84 1009.81 1009.81 1009.82 1009.86 1009.92 1010.00 1010.09 1010.19 1010.29 1010.40 1010.50 1010.60
1013.36 1013.23 1013.13 1013.07 1013.05 1013.08 1013.15 1013.23 1013.30 1013.35 1013.34 1013.26 1013.10 1012.86 1012.56 1012.20 1011.82 1011.44 1011.08 1010.77 1010.50 1010.30 1010.14 1010.04 1009.97 1009.92 1009.89 1009.87 1009.85 1009.84 1009.83 1009.83 1009.85 1009.88 1009.92 1009.96 1010.02 1010.08 1010.14 1010.19 1010.25 1010.30 1010.36
1013.13 1012.94 1012.80 1012.73 1012.72 1012.77 1012.86 1012.97 1013.06 1013.11 1013.10 1013.00 1012.81 1012.54 1012.21 1011.82 1011.42 1011.02 1010.66 1010.35 1010.09 1009.90 1009.77 1009.69 1009.65 1009.63 1009.63 1009.63 1009.65 1009.66 1009.69 1009.71 1009.75 1009.78 1009.82 1009.87 1009.91 1009.95 1009.99 1010.02 1010.06 1010.09 1010.14
1012.89 1012.66 1012.50 1012.42 1012.43 1012.49 1012.60 1012.71 1012.80 1012.84 1012.80 1012.66 1012.43 1012.12 1011.74 1011.32 1010.90 1010.49 1010.13 1009.83 1009.59 1009.42 1009.32 1009.26 1009.25 1009.26 1009.29 1009.33 1009.37 1009.41 1009.46 1009.50 1009.55 1009.60 1009.64 1009.69 1009.73 1009.77 1009.80 1009.83 1009.87 1009.91 1009.97
1012.63 1012.39 1012.24 1012.17 1012.18 1012.26 1012.37 1012.47 1012.54 1012.55 1012.46 1012.27 1011.99 1011.63 1011.20 1010.75 1010.31 1009.90 1009.54 1009.25 1009.04 1008.90 1008.83 1008.81 1008.83 1008.88 1008.93 1009.00 1009.07 1009.13 1009.20 1009.26 1009.32 1009.38 1009.43 1009.48 1009.53 1009.57 1009.61 1009.66 1009.71 1009.78 1009.87
1012.30 1012.09 1011.96 1011.92 1011.95 1012.04 1012.15 1012.24 1012.28 1012.24 1012.10 1011.85 1011.51 1011.10 1010.63 1010.16 1009.70 1009.29 1008.95 1008.68 1008.51 1008.41 1008.37 1008.39 1008.45 1008.52 1008.61 1008.70 1008.80 1008.88 1008.96 1009.04 1009.11 1009.18 1009.24 1009.30 1009.35 1009.41 1009.47 1009.53 1009.61 1009.71 1009.83
1011.85 1011.69 1011.61 1011.62 1011.69 1011.80 1011.91 1011.99 1012.00 1011.91 1011.72 1011.42 1011.03 1010.57 1010.08 1009.59 1009.13 1008.73 1008.41 1008.18 1008.03 1007.97 1007.98 1008.04 1008.13 1008.24 1008.35 1008.47 1008.58 1008.68 1008.78 1008.87 1008.95 1009.03 1009.10 1009.17 1009.23 1009.30 1009.37 1009.46 1009.55 1009.67 1009.81
1011.23 1011.15 1011.14 1011.22 1011.34 1011.47 1011.60 1011.67 1011.66 1011.54 1011.31 1010.98 1010.56 1010.08 1009.58 1009.08 1008.64 1008.26 1007.97 1007.78 1007.67 1007.65 1007.69 1007.78 1007.90 1008.04 1008.17 1008.30 1008.43 1008.54 1008.65 1008.74 1008.84 1008.93 1009.01 1009.09 1009.16 1009.24 1009.31 1009.41 1009.51 1009.63 1009.76
1010.45 1010.45 1010.53 1010.67 1010.85 1011.03 1011.17 1011.26 1011.24 1011.12 1010.88 1010.54 1010.12 1009.65 1009.16 1008.69 1008.27 1007.93 1007.68 1007.52 1007.45 1007.46 1007.53 1007.64 1007.77 1007.92 1008.06 1008.19 1008.32 1008.43 1008.54 1008.64 1008.74 1008.83 1008.92 1009.01 1009.09 1009.17 1009.25 1009.33 1009.42 1009.52 1009.63
Thickness
5591 5589 5588 5586 5585 5584 5585 5585 5585 5586 5586 5586 5586 5586 5588 5590 5591 5594 5596 5599 5601 5603 5605 5607 5609 5610 5612 5612 5611 5610 5608 5607 5607 5604 5602 5601 5603 5603 5602 5601 5601 5600 5600
5581 5579 5578 5576 5576 5575 5575 5575 5576 5576 5577 5578 5578 5579 5580 5581 5583 5585 5588 5590 5593 5596 5599 5600 5601 5603 5603 5604 5603 5602 5600 5598 5598 5596 5592 5589 5590 5592 5593 5592 5591 5591 5590
5575 5571 5569 5567 5566 5566 5566 5568 5567 5568 5568 5569 5570 5570 5571 5573 5574 5576 5579 5582 5585 5589 5591 5592 5594 5595 5596 5596 5596 5595 5594 5590 5588 5588 5585 5581 5580 5579 5581 5581 5581 5581 5580
5567 5564 5562 5559 5558 5558 5558 5558 5559 5560 5560 5560 5561 5562 5563 5565 5567 5569 5572 5574 5577 5580 5583 5585 5586 5587 5588 5588 5588 5587 5586 5584 5580 5577 5576 5575 5573 5571 5570 5570 5570 5570 5569
5559 5557 5555 5553 5551 5549 5548 5549 5550 5551 5552 5552 5553 5554 5555 5557 5559 5561 5563 5566 5569 5571 5573 5575 5577 5578 5579 5579 5578 5578 5577 5575 5573 5570 5567 5565 5563 5562 5561 5559 5558 5558 5559
5550 5548 5546 5544 5542 5540 5540 5540 5541 5542 5543 5544 5545 5546 5548 5549 5551 5553 5555 5557 5560 5562 5564 5566 5567 5569 5569 5569 5569 5569 5568 5566 5564 5562 5560 5558 5555 5553 5550 5548 5546 5546 5547
5541 5538 5536 5535 5533 5532 5531 5531 5533 5533 5534 5535 5536 5538 5540 5541 5544 5546 5547 5549 5551 5553 5555 5557 5557 5558 5559 5560 5559 5558 5558 5556 5555 5554 5552 5550 5548 5546 5544 5540 5537 5535 5535
5531 5530 5528 5526 5524 5524 5523 5523 5524 5525 5526 5527 5528 5530 5532 5533 5535 5537 5539 5541 5543 5544 5545 5546 5547 5547 5549 5549 5549 5548 5547 5546 5545 5544 5542 5540 5539 5537 5536 5533 5528 5525 5523
5522 5520 5518 5516 5515 5515 5516 5516 5516 5517 5518 5519 5520 5521 5523 5525 5527 5528 5530 5532 5533 5534 5535 5536 5537 5537 5537 5538 5538 5537 5536 5535 5534 5532 5532 5530 5528 5527 5525 5523 5521 5517 5514
5512 5510 5508 5508 5507 5507 5507 5508 5509 5509 5510 5511 5512 5514 5515 5517 5518 5519 5521 5522 5523 5524 5525 5525 5526 5526 5526 5526 5526 5526 5525 5524 5523 5522 5520 5518 5517 5515 5513 5512 5510 5508 5506
5503 5502 5500 5499 5498 5498 5498 5498 5499 5500 5501 5502 5504 5505 5506 5508 5509 5510 5511 5512 5513 5514 5514 5515 5515 5515 5514 5514 5514 5514 5513 5512 5511 5509 5508 5507 5505 5503 5502 5500 5499 5497 5495
5495 5493 5492 5491 5490 5489 5489 5490 5491 5492 5493 5494 5495 5496 5497 5498 5499 5500 5500 5502 5503 5503 5503 5504 5503 5503 5503 5503 5503 5503 5502 5500 5499 5497 5497 5495 5494 5492 5490 5489 5487 5484 5483
5486 5484 5483 5483 5482 5482 5481 5482 5483 5483 5484 5485 5486 5486 5487 5487 5488 5489 5490 5491 5491 5492 5492 5492 5491 5492 5492 5491 5492 5491 5490 5489 5488 5486 5486 5485 5483 5481 5479 5478 5475 5473 5471
5479 5477 5475 5475 5476 5475 5475 5475 5475 5475 5476 5476 5477 5477 5477 5478 5478 5479 5479 5479 5480 5481 5481 5480 5480 5480 5480 5480 5479 5479 5478 5477 5476 5475 5474 5474 5472 5470 5468 5467 5465 5462 5460
5472 5471 5470 5468 5469 5468 5468 5468 5467 5467 5468 5468 5468 5468 5468 5468 5468 5468 5468 5468 5469 5469 5469 5469 5469 5469 5469 5468 5468 5467 5466 5465 5463 5463 5463 5462 5461 5460 5458 5457 5453 5451 5448
5467 5465 5464 5462 5462 5462 5462 5461 5460 5460 5460 5459 5459 5459 5458 5458 5457 5457 5457 5457 5457 5457 5456 5456 5456 5456 5457 5457 5457 5456 5454 5453 5452 5451 5450 5450 5449 5447 5446 5445 5443 5441 5438
5460 5459 5458 5457 5456 5456 5455 5454 5453 5452 5452 5451 5450 5449 5449 5448 5447 5447 5446 5446 5445 5445 5444 5444 5443 5443 5444 5445 5446 5445 5443 5441 5440 5439 5438 5437 5436 5435 5433 5432 5431 5429 5427
5453 5452 5451 5450 5449 5448 5447 5446 5445 5444 5443 5442 5441 5440 5439 5438 5437 5436 5436 5435 5434 5434 5433 5432 5432 5432 5432 5433 5433 5433 5431 5429 5428 5427 5426 5425 5424 5423 5422 5421 5419 5417 5415
5447 5446 5445 5443 5442 5440 5439 5438 5436 5435 5435 5434 5433 5432 5430 5429 5427 5426 5426 5425 5424 5423 5422 5422 5421 5420 5421 5421 5421 5421 5419 5417 5416 5415 5414 5413 5412 5412 5411 5410 5408 5406 5403
5439 5438 5436 5435 5433 5432 5431 5430 5429 5427 5427 5427 5425 5423 5422 5420 5419 5418 5416 5415 5414 5413 5412 5411 5410 5410 5409 5410 5410 5410 5408 5406 5405 5404 5403 5402 5401 5400 5399 5397 5395 5393 5391
5430 5429 5428 5426 5426 5424 5423 5421 5421 5420 5421 5419 5417 5415 5414 5412 5410 5408 5407 5405 5404 5403 5401 5400 5400 5399 5399 5399 5400 5399 5397 5395 5394 5392 5391 5390 5390 5389 5388 5386 5383 5381 5380
5421 5420 5418 5417 5417 5416 5415 5414 5413 5413 5412 5410 5408 5406 5405 5403 5402 5399 5397 5396 5394 5393 5391 5390 5389 5389 5388 5388 5388 5388 5387 5386 5383 5382 5381 5380 5379 5378 5376 5373 5371 5370 5367
5411 5410 5409 5408 5408 5407 5407 5406 5406 5405 5403 5401 5399 5397 5396 5394 5393 5391 5389 5386 5385 5383 5382 5381 5380 5379 5378 5378 5378 5378 5377 5376 5374 5372 5371 5370 5368 5366 5363 5360 5359 5356 5353
5403 5402 5400 5400 5399 5399 5399 5399 5399 5397 5395 5392 5390 5388 5386 5385 5383 5382 5381 5378 5376 5374 5373 5372 5370 5369 5368 5368 5367 5367 5366 5365 5364 5361 5360 5358 5356 5353 5350 5348 5345 5343 5340
5395 5394 5393 5393 5393 5392 5391 5391 5391 5389 5386 5384 5382 5380 5378 5376 5375 5374 5372 5370 5369 5367 5365 5364 5362 5360 5359 5360 5360 5358 5356 5354 5352 5350 5347 5345 5342 5340 5337 5335 5332 5330 5328
5388 5386 5385 5385 5385 5384 5383 5383 5382 5381 5378 5376 5374 5372 5370 5368 5366 5365 5363 5362 5361 5360 5358 5356 5354 5353 5352 5352 5351 5349 5348 5346 5343 5339 5336 5333 5331 5329 5326 5324 5321 5319 5317